Weather History for KIZG - July, 2015

Change the Weather History Date:

Wednesday, July 29, 2015

  Actual Average Record
Temperature  
Mean Temperature 76 °F -  
Max Temperature 93 °F 79 °F 93 °F (2015)
Min Temperature 62 °F 53 °F 46 °F (2001)
Cooling Degree Days 12    
Growing Degree Days 26 (Base 50)    
Moisture  
Dew Point 68 °F    
Average Humidity 79    
Maximum Humidity 100    
Minimum Humidity 45    
Precipitation  
Precipitation 0.00 in - - ()
Sea Level Pressure  
Sea Level Pressure 29.92 in    
Wind  
Wind Speed 2 mph (NNE)    
Max Wind Speed 7 mph    
Max Gust Speed -    
Visibility 9 miles    
Events Rain    
Averages and records for this station are not official NWS values.
T = Trace of Precipitation, MM = Missing Value Source: NWS Daily Summary

Daily Weather History Graph

Daily Weather History Graph

Search for Another Location

Airport or City:

Trip Planner

Search our weather history database for the weather conditions in past years. The results will help you decide how hot, cold, wet, or windy it might be!

Date:

Astronomy

Jul. 29, 2015 Rise Set
Actual Time 5:28 AM EDT 8:11 PM EDT
Civil Twilight 4:55 AM EDT 8:44 PM EDT
Nautical Twilight 4:12 AM EDT 9:26 PM EDT
Astronomical Twilight 3:24 AM EDT 10:14 PM EDT
Moon 6:34 PM EDT 3:32 AM EDT
Length of Visible Light 15h 49m
Length of Day
14h 42m
Waxing Gibbous, 96% of the Moon is Illuminated
Jul 29
Waxing Gibbous
Jul 31
Full
Aug 6
Last Quarter
Aug 14
New
Aug 22
First Quarter

Hourly Weather History & Observations

Time (EDT) Temp. Heat Index Dew Point Humidity Pressure Visibility Wind Dir Wind Speed Gust Speed Precip Events Conditions
12:54 AM 64.9 °F - 64.0 °F 97% 29.96 in 10.0 mi Variable 4.6 mph - N/A   Clear
1:54 AM 62.1 °F - 62.1 °F 100% 29.96 in 10.0 mi Calm Calm - N/A   Clear
2:54 AM 62.1 °F - 61.0 °F 96% 29.95 in 10.0 mi Calm Calm - N/A   Clear
3:54 AM 62.1 °F - 62.1 °F 100% 29.95 in 9.0 mi Calm Calm - N/A   Scattered Clouds
4:54 AM 62.1 °F - 62.1 °F 100% 29.95 in 10.0 mi East 3.5 mph - N/A   Overcast
5:54 AM 62.1 °F - 62.1 °F 100% 29.96 in 8.0 mi Calm Calm - N/A   Clear
6:54 AM 66.9 °F - 66.0 °F 97% 29.97 in 10.0 mi Calm Calm - N/A   Clear
7:54 AM 73.9 °F - 66.9 °F 79% 29.97 in 10.0 mi Calm Calm - N/A   Clear
8:54 AM 80.1 °F 82.9 °F 69.1 °F 69% 29.96 in 10.0 mi Variable 3.5 mph - N/A   Clear
9:54 AM 84.9 °F 90.1 °F 71.1 °F 63% 29.95 in 10.0 mi Calm Calm - N/A   Clear
10:54 AM 87.1 °F 92.8 °F 71.1 °F 59% 29.94 in 10.0 mi Variable 4.6 mph - N/A   Clear
11:54 AM 88.0 °F 92.9 °F 70.0 °F 55% 29.93 in 10.0 mi Calm Calm - N/A   Partly Cloudy
12:54 PM 88.0 °F 92.9 °F 70.0 °F 55% 29.91 in 10.0 mi Calm Calm - N/A   Mostly Cloudy
1:54 PM 90.0 °F 92.8 °F 66.9 °F 46% 29.91 in 10.0 mi Calm Calm - N/A   Clear
2:54 PM 91.0 °F 94.3 °F 66.9 °F 45% 29.88 in 10.0 mi Variable 3.5 mph - N/A   Clear
3:54 PM 91.9 °F 95.9 °F 68.0 °F 45% 29.88 in 10.0 mi Variable 6.9 mph - N/A   Mostly Cloudy
4:54 PM 87.1 °F 91.3 °F 69.1 °F 55% 29.87 in 10.0 mi WNW 3.5 mph - N/A   Overcast
5:54 PM 78.1 °F - 69.1 °F 74% 29.88 in 10.0 mi Calm Calm - 0.00 in Rain Light Rain
6:54 PM 79.0 °F - 73.0 °F 82% 29.88 in 10.0 mi Calm Calm - 0.00 in   Partly Cloudy
7:54 PM 75.9 °F - 72.0 °F 87% 29.88 in 10.0 mi Calm Calm - N/A   Partly Cloudy
8:54 PM 72.0 °F - 71.1 °F 97% 29.89 in 10.0 mi Calm Calm - N/A   Clear
9:54 PM 71.1 °F - 71.1 °F 100% 29.90 in 8.0 mi Calm Calm - N/A   Clear
10:54 PM 69.1 °F - 69.1 °F 100% 29.90 in 6.0 mi Calm Calm - N/A   Clear
11:54 PM 68.0 °F - 68.0 °F 100% 29.89 in 4.0 mi Calm Calm - N/A   Clear